CW9009 Weather Reports


Display with metric or nautical units.
time (UTC)temp
F
wind
direction
speed
MPH
gust
MPH
rain 1hr
in
rain 24hr
in
rain mn
in
humidity
%
barometer
mb
20260502202430 81 205 1.0 2.0 0.00 0.00 0.00 13 1013.2
20260502201430 80 142 1.0 2.0 0.00 0.00 0.00 16 1013.4
20260502200430 79 38 2.0 4.0 0.00 0.00 0.00 18 1013.5
20260502195450 78 100 1.0 3.0 0.00 0.00 0.00 21 1013.5
20260502194415 78 98 2.0 4.0 0.00 0.00 0.00 19 1013.7
20260502193436 76 92 1.0 2.0 0.00 0.00 0.00 21 1013.8
20260502192416 76 47 1.0 2.0 0.00 0.00 0.00 28 1014.1
20260502191431 75 0 0.0 0.0 0.00 0.00 0.00 28 1014.1
20260502190416 75 194 1.0 2.0 0.00 0.00 0.00 30 1014.3
20260502185417 74 153 2.0 3.0 0.00 0.00 0.00 31 1014.6
20260502184416 72 154 2.0 2.0 0.00 0.00 0.00 33 1014.7
20260502183457 71 126 0.0 1.0 0.00 0.00 0.00 35 1014.8
20260502182417 70 164 1.0 1.0 0.00 0.00 0.00 36 1015.0
20260502181432 69 111 1.0 1.0 0.00 0.00 0.00 37 1015.2
20260502180433 68 146 2.0 4.0 0.00 0.00 0.00 42 1015.3
20260502170418 62 296 0.0 1.0 0.00 0.00 0.00 45 1015.8
20260502163419 59 251 1.0 1.0 0.00 0.00 0.00 48 1016.2
20260502162419 58 35 0.0 0.0 0.00 0.00 0.00 49 1016.3
20260502161419 57 169 2.0 2.0 0.00 0.00 0.00 51 1016.2
20260502160419 56 154 1.0 2.0 0.00 0.00 0.00 51 1016.2
20260502151440 53 141 0.0 1.0 0.00 0.00 0.00 60 1016.2
20260502150420 53 141 2.0 2.0 0.00 0.00 0.00 64 1016.1
20260502130418 49 1 2.0 3.0 0.00 0.00 0.00 60 1015.6
20260502123419 50 98 2.0 3.0 0.00 0.00 0.00 59 1015.4
20260502122419 50 36 1.0 3.0 0.00 0.00 0.00 59 1015.4
20260502121439 50 34 2.0 2.0 0.00 0.00 0.00 58 1015.4
20260502120439 50 84 1.0 2.0 0.00 0.00 0.00 58 1015.2
20260502115420 50 79 1.0 3.0 0.00 0.00 0.00 58 1015.1
20260502114419 50 124 2.0 3.0 0.00 0.00 0.00 58 1015.3
20260502113420 50 110 3.0 3.0 0.00 0.00 0.00 58 1015.4
20260502112420 50 53 3.0 4.0 0.00 0.00 0.00 58 1015.6
20260502111420 50 169 1.0 2.0 0.00 0.00 0.00 59 1015.6
20260502110421 50 48 2.0 2.0 0.00 0.00 0.00 58 1015.6
20260502105420 50 188 2.0 3.0 0.00 0.00 0.00 55 1015.7
20260502104421 50 43 2.0 2.0 0.00 0.00 0.00 58 1015.6
20260502103421 50 60 2.0 3.0 0.00 0.00 0.00 58 1015.6
20260502102441 50 197 2.0 2.0 0.00 0.00 0.00 58 1015.6
20260502101421 50 49 1.0 2.0 0.00 0.00 0.00 55 1015.6
20260502100422 51 78 2.0 3.0 0.00 0.00 0.00 54 1015.4
20260502091422 52 51 1.0 3.0 0.00 0.00 0.00 53 1015.3
20260502090423 52 111 2.0 3.0 0.00 0.00 0.00 54 1015.4
20260502071425 51 245 2.0 3.0 0.00 0.00 0.00 58 1015.8
20260502070445 52 313 2.0 2.0 0.00 0.00 0.00 54 1015.8
20260502065425 53 233 1.0 2.0 0.00 0.00 0.00 53 1015.8
20260502064525 54 226 1.0 1.0 0.00 0.00 0.00 51 1015.8
20260502063426 55 343 1.0 1.0 0.00 0.00 0.00 51 1015.7
20260502062426 55 131 1.0 1.0 0.00 0.00 0.00 54 1015.6
20260502061425 56 79 1.0 1.0 0.00 0.00 0.00 47 1015.6
20260502060426 57 118 1.0 2.0 0.00 0.00 0.00 47 1015.6
20260502055426 56 82 1.0 2.0 0.00 0.00 0.00 49 1015.6
20260502054426 57 83 1.0 2.0 0.00 0.00 0.00 53 1015.7
20260502053427 58 116 2.0 3.0 0.00 0.00 0.00 42 1015.7
20260502052447 58 85 1.0 2.0 0.00 0.00 0.00 42 1015.7
20260502051447 59 32 0.0 1.0 0.00 0.00 0.00 42 1015.7
20260502050447 59 78 0.0 1.0 0.00 0.00 0.00 42 1015.6
20260502045447 60 0 0.0 0.0 0.00 0.00 0.00 41 1015.4
20260502044427 60 67 1.0 1.0 0.00 0.00 0.00 39 1015.6
20260502043427 61 0.0 0.0 0.00 0.00 0.00 39 1015.6
20260502042416 62 0 0.0 0.0 0.00 0.00 0.00 37 1015.6
20260502041417 64 164 1.0 1.0 0.00 0.00 0.00 36 1015.4
20260502040437 65 107 1.0 1.0 0.00 0.00 0.00 33 1015.4
20260502035417 65 0 0.0 0.0 0.00 0.00 0.00 31 1015.2
20260502034457 65 0 0.0 0.0 0.00 0.00 0.00 30 1015.1
20260502033417 67 53 0.0 1.0 0.00 0.00 0.00 27 1015.0
20260502032416 69 140 1.0 1.0 0.00 0.00 0.00 25 1015.0
20260502031418 70 0.0 0.0 0.00 0.00 0.00 22 1014.8
20260502030418 71 191 0.0 1.0 0.00 0.00 0.00 21 1014.7
20260502025438 72 141 1.0 1.0 0.00 0.00 0.00 16 1014.6
20260502024416 73 0.0 0.0 0.00 0.00 0.00 15 1014.5
20260502023417 74 0.0 0.0 0.00 0.00 0.00 13 1014.6
20260502022417 75 0 0.0 0.0 0.00 0.00 0.00 13 1014.5
20260502021418 76 0.0 0.0 0.00 0.00 0.00 12 1014.5
20260502020419 77 0.0 0.0 0.00 0.00 0.00 11 1014.5
20260502015419 78 241 0.0 1.0 0.00 0.00 0.00 11 1014.5
20260502014418 79 0.0 0.0 0.00 0.00 0.00 11 1014.6
20260502013438 79 0.0 0.0 0.00 0.00 0.00 11 1014.6
20260502012438 80 129 1.0 2.0 0.00 0.00 0.00 11 1014.6
20260502011418 80 295 0.0 1.0 0.00 0.00 0.00 11 1014.7
20260502010418 81 88 1.0 2.0 0.00 0.00 0.00 10 1014.7
20260502005439 81 111 1.0 2.0 0.00 0.00 0.00 10 1014.7
20260502004439 81 209 1.0 2.0 0.00 0.00 0.00 11 1014.8
20260502003439 81 252 1.0 2.0 0.00 0.00 0.00 11 1014.7
20260502002439 81 128 1.0 3.0 0.00 0.00 0.00 11 1014.9
20260502001419 81 247 1.0 2.0 0.00 0.00 0.00 11 1014.9
20260502000420 81 126 1.0 2.0 0.00 0.00 0.00 12 1015.0
20260501235420 81 294 1.0 3.0 0.00 0.00 0.00 11 1015.1
20260501234441 81 109 1.0 3.0 0.00 0.00 0.00 12 1015.1
20260501233440 80 67 1.0 2.0 0.00 0.00 0.00 12 1015.2
20260501232421 81 126 2.0 2.0 0.00 0.00 0.00 12 1015.3
20260501231441 80 167 2.0 4.0 0.00 0.00 0.00 16 1015.4
20260501230421 80 84 2.0 3.0 0.00 0.00 0.00 13 1015.6
20260501225421 80 163 2.0 2.0 0.00 0.00 0.00 13 1015.7
20260501224422 80 96 1.0 2.0 0.00 0.00 0.00 13 1015.8
20260501223422 81 241 1.0 2.0 0.00 0.00 0.00 12 1015.8
20260501222422 80 115 3.0 3.0 0.00 0.00 0.00 13 1016.1
20260501221422 80 174 2.0 3.0 0.00 0.00 0.00 13 1016.2
20260501220422 80 62 2.0 3.0 0.00 0.00 0.00 16 1016.4
20260501215423 80 86 3.0 5.0 0.00 0.00 0.00 16 1016.6
20260501214423 79 212 1.0 1.0 0.00 0.00 0.00 17 1016.9
20260501213423 78 259 1.0 1.0 0.00 0.00 0.00 17 1016.9
20260501212424 78 0 0.0 0.0 0.00 0.00 0.00 13 1017.1
20260501211424 78 109 3.0 4.0 0.00 0.00 0.00 16 1017.2
20260501210423 77 134 2.0 3.0 0.00 0.00 0.00 18 1017.3
20260501205424 77 290 3.0 3.0 0.00 0.00 0.00 16 1017.4
20260501204424 77 159 2.0 3.0 0.00 0.00 0.00 18 1017.5